Time,TemperatureF,DewpointF,PressureIn,WindDirection,WindDirectionDegrees,WindSpeedMPH,WindSpeedGustMPH,Humidity,HourlyPrecipIn,Conditions,Clouds,dailyrainin,SoftwareType,DateUTC
2013-04-28 00:06:00,53.1,3.6,29.94,SW,228,6.0,11.6,13,0.00,,,-99.99,FreeWX 2.04,2013-04-28 06:06:00,
2013-04-28 00:16:00,52.7,3.2,29.94,SW,224,4.0,11.0,13,0.00,,,-99.99,FreeWX 2.04,2013-04-28 06:16:00,
2013-04-28 00:26:00,52.5,3.2,29.94,SW,222,4.0,9.2,13,0.00,,,-99.99,FreeWX 2.04,2013-04-28 06:26:00,
2013-04-28 00:36:00,52.2,2.8,29.94,SW,225,4.0,11.6,13,0.00,,,-99.99,FreeWX 2.04,2013-04-28 06:36:00,
2013-04-28 00:46:00,51.8,2.5,29.94,SW,226,4.0,8.3,13,0.00,,,-99.99,FreeWX 2.04,2013-04-28 06:46:00,
2013-04-28 00:56:00,51.6,2.5,29.94,SSW,210,3.0,11.0,13,0.00,,,-99.99,FreeWX 2.04,2013-04-28 06:56:00,
2013-04-28 01:06:00,52.0,2.7,29.94,SW,218,4.0,8.3,13,0.00,,,-99.99,FreeWX 2.04,2013-04-28 07:06:00,
2013-04-28 01:16:00,51.8,2.5,29.94,SW,217,3.0,8.7,13,0.00,,,-99.99,FreeWX 2.04,2013-04-28 07:16:00,
2013-04-28 01:26:00,51.6,2.5,29.94,SSW,213,1.0,6.7,13,0.00,,,-99.99,FreeWX 2.04,2013-04-28 07:26:00,
2013-04-28 01:36:00,52.0,2.7,29.94,SW,234,3.0,7.4,13,0.00,,,-99.99,FreeWX 2.04,2013-04-28 07:36:00,
2013-04-28 01:46:00,51.6,2.5,29.94,North,-999,0.0,4.0,13,0.00,,,-99.99,FreeWX 2.04,2013-04-28 07:46:00,
2013-04-28 01:56:00,49.6,2.5,29.94,North,-999,0.0,4.5,14,0.00,,,-99.99,FreeWX 2.04,2013-04-28 07:56:00,
2013-04-28 02:06:00,50.9,3.4,29.94,NNE,16,1.0,4.9,14,0.00,,,-99.99,FreeWX 2.04,2013-04-28 08:06:00,
2013-04-28 02:16:00,50.0,2.7,29.94,North,-999,0.0,4.9,14,0.00,,,-99.99,FreeWX 2.04,2013-04-28 08:16:00,
2013-04-28 02:26:00,50.0,2.7,29.94,North,-999,0.0,4.5,14,0.00,,,-99.99,FreeWX 2.04,2013-04-28 08:26:00,
2013-04-28 02:36:00,49.8,2.7,29.94,North,-999,0.0,5.8,14,0.00,,,-99.99,FreeWX 2.04,2013-04-28 08:36:00,
2013-04-28 02:46:00,48.9,1.9,29.94,North,-999,0.0,4.0,14,0.00,,,-99.99,FreeWX 2.04,2013-04-28 08:46:00,
2013-04-28 02:56:00,46.4,-0.2,29.94,SE,137,2.0,5.4,14,0.00,,,-99.99,FreeWX 2.04,2013-04-28 08:56:00,
2013-04-28 03:06:00,45.5,0.5,29.94,ESE,105,2.0,4.9,15,0.00,,,-99.99,FreeWX 2.04,2013-04-28 09:06:00,
2013-04-28 03:16:00,46.2,-0.2,29.94,North,-999,0.0,4.9,14,0.00,,,-99.99,FreeWX 2.04,2013-04-28 09:16:00,
2013-04-28 03:26:00,46.8,0.1,29.94,North,-999,0.0,3.1,14,0.00,,,-99.99,FreeWX 2.04,2013-04-28 09:26:00,
2013-04-28 03:36:00,46.2,-0.2,29.94,North,-999,0.0,0.0,14,0.00,,,-99.99,FreeWX 2.04,2013-04-28 09:36:00,
2013-04-28 03:46:00,45.3,0.5,29.94,ESE,110,2.0,4.5,15,0.00,,,-99.99,FreeWX 2.04,2013-04-28 09:46:00,
2013-04-28 03:56:00,44.4,-0.2,29.94,ESE,108,3.0,6.3,15,0.00,,,-99.99,FreeWX 2.04,2013-04-28 09:56:00,
2013-04-28 04:06:00,43.3,-1.1,29.94,ESE,105,4.0,7.8,15,0.00,,,-99.99,FreeWX 2.04,2013-04-28 10:06:00,
2013-04-28 04:16:00,42.3,-2.0,29.94,ESE,115,5.0,7.8,15,0.00,,,-99.99,FreeWX 2.04,2013-04-28 10:16:00,
2013-04-28 04:26:00,42.3,1.8,29.94,ESE,107,3.0,7.8,18,0.00,,,-99.99,FreeWX 2.04,2013-04-28 10:26:00,
2013-04-28 04:36:00,42.4,1.9,29.94,ESE,120,5.0,7.4,18,0.00,,,-99.99,FreeWX 2.04,2013-04-28 10:36:00,
2013-04-28 04:46:00,42.4,1.9,29.94,ESE,117,6.0,10.1,18,0.00,,,-99.99,FreeWX 2.04,2013-04-28 10:46:00,
2013-04-28 04:56:00,42.6,2.1,29.94,ESE,114,6.0,8.3,18,0.00,,,-99.99,FreeWX 2.04,2013-04-28 10:56:00,
2013-04-28 05:06:00,43.0,2.5,29.94,ESE,105,5.0,9.6,18,0.00,,,-99.99,FreeWX 2.04,2013-04-28 11:06:00,
2013-04-28 05:16:00,43.2,2.5,29.94,ESE,121,5.0,8.3,18,0.00,,,-99.99,FreeWX 2.04,2013-04-28 11:16:00,
2013-04-28 05:26:00,43.0,2.5,29.94,ESE,112,5.0,7.8,18,0.00,,,-99.99,FreeWX 2.04,2013-04-28 11:26:00,
2013-04-28 05:36:00,42.8,2.3,29.94,ESE,104,3.0,7.8,18,0.00,,,-99.99,FreeWX 2.04,2013-04-28 11:36:00,
2013-04-28 05:46:00,43.0,2.5,29.94,East,96,3.0,7.4,18,0.00,,,-99.99,FreeWX 2.04,2013-04-28 11:46:00,
2013-04-28 05:56:00,43.9,1.9,29.94,East,87,3.0,6.9,17,0.00,,,-99.99,FreeWX 2.04,2013-04-28 11:56:00,
2013-04-28 06:06:00,44.2,2.3,29.94,ESE,106,1.0,7.8,17,0.00,,,-99.99,FreeWX 2.04,2013-04-28 12:06:00,
2013-04-28 06:16:00,43.3,2.7,29.94,ESE,108,3.0,7.4,18,0.00,,,-99.99,FreeWX 2.04,2013-04-28 12:16:00,
2013-04-28 06:26:00,42.8,2.3,29.94,ESE,104,4.0,8.3,18,0.00,,,-99.99,FreeWX 2.04,2013-04-28 12:26:00,
2013-04-28 06:36:00,42.8,4.5,29.94,East,97,3.0,6.7,20,0.00,,,-99.99,FreeWX 2.04,2013-04-28 12:36:00,
2013-04-28 06:46:00,42.4,4.3,29.94,ESE,115,3.0,5.8,20,0.00,,,-99.99,FreeWX 2.04,2013-04-28 12:46:00,
2013-04-28 06:56:00,43.2,4.8,29.94,ESE,115,3.0,6.7,20,0.00,,,-99.99,FreeWX 2.04,2013-04-28 12:56:00,
2013-04-28 07:06:00,43.3,5.0,29.94,East,99,2.0,5.4,20,0.00,,,-99.99,FreeWX 2.04,2013-04-28 13:06:00,
2013-04-28 07:16:00,44.8,6.3,29.94,ESE,111,2.0,5.8,20,0.00,,,-99.99,FreeWX 2.04,2013-04-28 13:16:00,
2013-04-28 07:26:00,46.8,4.3,29.91,East,93,3.0,6.3,17,0.00,,,-99.99,FreeWX 2.04,2013-04-28 13:26:00,
2013-04-28 07:36:00,47.8,3.9,29.91,North,-999,0.0,4.0,16,0.00,,,-99.99,FreeWX 2.04,2013-04-28 13:36:00,
2013-04-28 07:46:00,50.0,5.5,29.91,ESE,119,2.0,7.8,16,0.00,,,-99.99,FreeWX 2.04,2013-04-28 13:46:00,
2013-04-28 07:56:00,51.1,1.9,29.94,SSE,161,4.0,8.7,13,0.00,,,-99.99,FreeWX 2.04,2013-04-28 13:56:00,
2013-04-28 08:07:00,51.3,2.1,29.94,SSW,199,3.0,7.4,13,0.00,,,-99.99,FreeWX 2.04,2013-04-28 14:07:00,
2013-04-28 08:17:00,51.3,2.1,29.94,South,190,1.0,5.4,13,0.00,,,-99.99,FreeWX 2.04,2013-04-28 14:17:00,
2013-04-28 08:27:00,51.8,2.5,29.94,South,190,2.0,7.4,13,0.00,,,-99.99,FreeWX 2.04,2013-04-28 14:27:00,
2013-04-28 08:37:00,52.0,2.7,29.94,SSW,203,2.0,7.8,13,0.00,,,-99.99,FreeWX 2.04,2013-04-28 14:37:00,
2013-04-28 08:47:00,52.2,2.8,29.94,South,188,2.0,7.4,13,0.00,,,-99.99,FreeWX 2.04,2013-04-28 14:47:00,
2013-04-28 08:57:00,52.2,2.8,29.94,SSW,204,3.0,8.7,13,0.00,,,-99.99,FreeWX 2.04,2013-04-28 14:57:00,
2013-04-28 09:07:00,52.0,2.7,29.94,SSW,198,4.0,11.2,13,0.00,,,-99.99,FreeWX 2.04,2013-04-28 15:07:00,
2013-04-28 09:17:00,52.2,2.8,29.94,South,185,4.0,8.7,13,0.00,,,-99.99,FreeWX 2.04,2013-04-28 15:17:00,
2013-04-28 09:27:00,52.2,2.8,29.94,South,182,5.0,9.6,13,0.00,,,-99.99,FreeWX 2.04,2013-04-28 15:27:00,
2013-04-28 09:37:00,52.0,2.7,29.91,South,190,5.0,11.0,13,0.00,,,-99.99,FreeWX 2.04,2013-04-28 15:37:00,
2013-04-28 09:47:00,52.2,2.8,29.91,SSW,206,3.0,8.7,13,0.00,,,-99.99,FreeWX 2.04,2013-04-28 15:47:00,
2013-04-28 09:57:00,52.3,3.0,29.94,South,179,4.0,12.1,13,0.00,,,-99.99,FreeWX 2.04,2013-04-28 15:57:00,
2013-04-28 10:07:00,53.1,3.6,29.94,South,179,2.0,7.4,13,0.00,,,-99.99,FreeWX 2.04,2013-04-28 16:07:00,
2013-04-28 10:17:00,53.8,4.1,29.94,SSW,204,2.0,6.3,13,0.00,,,-99.99,FreeWX 2.04,2013-04-28 16:17:00,
2013-04-28 10:27:00,53.8,4.1,29.94,WSW,257,2.0,11.6,13,0.00,,,-99.99,FreeWX 2.04,2013-04-28 16:27:00,
2013-04-28 10:37:00,54.3,4.5,29.94,SW,234,4.0,8.7,13,0.00,,,-99.99,FreeWX 2.04,2013-04-28 16:37:00,
2013-04-28 10:47:00,54.3,4.5,29.94,SW,219,4.0,10.5,13,0.00,,,-99.99,FreeWX 2.04,2013-04-28 16:47:00,
2013-04-28 10:57:00,54.0,4.3,29.91,SSW,203,5.0,10.5,13,0.00,,,-99.99,FreeWX 2.04,2013-04-28 16:57:00,
2013-04-28 11:07:00,54.0,4.3,29.91,SW,214,4.0,11.0,13,0.00,,,-99.99,FreeWX 2.04,2013-04-28 17:07:00,
2013-04-28 11:17:00,53.8,4.1,29.91,SW,215,5.0,9.6,13,0.00,,,-99.99,FreeWX 2.04,2013-04-28 17:17:00,
2013-04-28 11:27:00,54.1,4.5,29.94,SW,218,3.0,10.5,13,0.00,,,-99.99,FreeWX 2.04,2013-04-28 17:27:00,
2013-04-28 11:37:00,54.1,4.5,29.94,SSW,213,4.0,10.5,13,0.00,,,-99.99,FreeWX 2.04,2013-04-28 17:37:00,
2013-04-28 11:47:00,54.5,4.6,29.94,SSW,211,4.0,10.1,13,0.00,,,-99.99,FreeWX 2.04,2013-04-28 17:47:00,
2013-04-28 11:57:00,54.9,3.2,29.94,SSW,212,4.0,8.7,12,0.00,,,-99.99,FreeWX 2.04,2013-04-28 17:57:00,
2013-04-28 12:07:00,55.0,3.4,29.94,SW,232,1.0,8.3,12,0.00,,,-99.99,FreeWX 2.04,2013-04-28 18:07:00,
2013-04-28 12:17:00,54.1,4.5,29.94,SW,217,3.0,8.3,13,0.00,,,-99.99,FreeWX 2.04,2013-04-28 18:17:00,
2013-04-28 12:27:00,53.8,4.1,29.94,SW,222,4.0,10.5,13,0.00,,,-99.99,FreeWX 2.04,2013-04-28 18:27:00,
2013-04-28 12:37:00,54.0,4.3,29.94,SSW,204,5.0,10.5,13,0.00,,,-99.99,FreeWX 2.04,2013-04-28 18:37:00,
2013-04-28 12:47:00,54.7,3.0,29.94,SSW,197,5.0,9.2,12,0.00,,,-99.99,FreeWX 2.04,2013-04-28 18:47:00,
2013-04-28 12:57:00,55.6,3.7,29.94,SSW,202,4.0,9.6,12,0.00,,,-99.99,FreeWX 2.04,2013-04-28 18:57:00,
2013-04-28 13:07:00,56.8,4.8,29.94,SSW,207,6.0,14.3,12,0.00,,,-99.99,FreeWX 2.04,2013-04-28 19:07:00,
2013-04-28 13:17:00,56.1,4.3,29.94,SW,219,4.0,10.5,12,0.00,,,-99.99,FreeWX 2.04,2013-04-28 19:17:00,
2013-04-28 13:27:00,55.9,4.1,29.94,SSW,208,6.0,11.2,12,0.00,,,-99.99,FreeWX 2.04,2013-04-28 19:27:00,
2013-04-28 13:37:00,56.5,4.5,29.94,SSW,211,7.0,14.3,12,0.00,,,-99.99,FreeWX 2.04,2013-04-28 19:37:00,
2013-04-28 13:47:00,58.5,6.1,29.94,SSW,208,7.0,15.9,12,0.00,,,-99.99,FreeWX 2.04,2013-04-28 19:47:00,
2013-04-28 13:57:00,60.1,5.4,29.91,SW,218,6.0,11.6,11,0.00,,,-99.99,FreeWX 2.04,2013-04-28 19:57:00,
2013-04-28 14:07:00,61.5,6.6,29.91,SW,220,6.0,15.2,11,0.00,,,-99.99,FreeWX 2.04,2013-04-28 20:07:00,
2013-04-28 14:17:00,60.6,5.9,29.91,SW,218,7.0,14.3,11,0.00,,,-99.99,FreeWX 2.04,2013-04-28 20:17:00,
2013-04-28 14:27:00,59.4,6.8,29.91,SW,219,5.0,11.2,12,0.00,,,-99.99,FreeWX 2.04,2013-04-28 20:27:00,
2013-04-28 14:37:00,58.3,5.9,29.91,SW,234,6.0,14.8,12,0.00,,,-99.99,FreeWX 2.04,2013-04-28 20:37:00,
2013-04-28 14:47:00,58.1,5.7,29.91,WSW,243,6.0,10.5,12,0.00,,,-99.99,FreeWX 2.04,2013-04-28 20:47:00,
2013-04-28 14:57:00,57.4,5.2,29.91,WSW,246,6.0,12.1,12,0.00,,,-99.99,FreeWX 2.04,2013-04-28 20:57:00,
2013-04-28 15:07:00,58.5,6.1,29.91,SW,221,5.0,11.0,12,0.00,,,-99.99,FreeWX 2.04,2013-04-28 21:07:00,
2013-04-28 15:17:00,58.5,6.1,29.91,SW,223,4.0,10.1,12,0.00,,,-99.99,FreeWX 2.04,2013-04-28 21:17:00,
2013-04-28 15:27:00,59.2,6.6,29.91,SW,229,4.0,9.6,12,0.00,,,-99.99,FreeWX 2.04,2013-04-28 21:27:00,
2013-04-28 15:37:00,59.0,6.4,29.88,WSW,241,6.0,14.3,12,0.00,,,-99.99,FreeWX 2.04,2013-04-28 21:37:00,
2013-04-28 15:47:00,59.0,6.4,29.88,SSW,211,6.0,13.4,12,0.00,,,-99.99,FreeWX 2.04,2013-04-28 21:47:00,
2013-04-28 15:57:00,58.3,5.9,29.88,SW,215,6.0,12.1,12,0.00,,,-99.99,FreeWX 2.04,2013-04-28 21:57:00,
2013-04-28 16:07:00,57.9,5.7,29.88,SW,231,4.0,9.6,12,0.00,,,-99.99,FreeWX 2.04,2013-04-28 22:07:00,
2013-04-28 16:17:00,57.9,5.7,29.88,SW,223,5.0,11.0,12,0.00,,,-99.99,FreeWX 2.04,2013-04-28 22:17:00,
2013-04-28 16:27:00,59.9,5.4,29.88,SW,218,5.0,10.1,11,0.00,,,-99.99,FreeWX 2.04,2013-04-28 22:27:00,
2013-04-28 16:37:00,57.6,5.4,29.88,WSW,242,6.0,11.2,12,0.00,,,-99.99,FreeWX 2.04,2013-04-28 22:37:00,
2013-04-28 16:47:00,57.4,5.2,29.88,SW,226,6.0,12.1,12,0.00,,,-99.99,FreeWX 2.04,2013-04-28 22:47:00,
2013-04-28 16:57:00,56.5,4.5,29.88,SW,232,5.0,10.5,12,0.00,,,-99.99,FreeWX 2.04,2013-04-28 22:57:00,
2013-04-28 17:07:00,56.8,4.8,29.88,SW,218,5.0,9.2,12,0.00,,,-99.99,FreeWX 2.04,2013-04-28 23:07:00,
2013-04-28 17:17:00,57.2,5.0,29.88,SW,227,4.0,9.6,12,0.00,,,-99.99,FreeWX 2.04,2013-04-28 23:17:00,
2013-04-28 17:27:00,56.3,4.5,29.88,SW,231,5.0,11.2,12,0.00,,,-99.99,FreeWX 2.04,2013-04-28 23:27:00,
2013-04-28 17:37:00,55.9,4.1,29.88,SW,214,4.0,11.2,12,0.00,,,-99.99,FreeWX 2.04,2013-04-28 23:37:00,
2013-04-28 17:48:00,55.9,4.1,29.88,SSW,212,4.0,8.7,12,0.00,,,-99.99,FreeWX 2.04,2013-04-28 23:48:00,
2013-04-28 17:58:00,54.3,4.5,29.85,SW,214,4.0,10.5,13,0.00,,,-99.99,FreeWX 2.04,2013-04-28 23:58:00,
2013-04-28 18:08:00,53.4,3.9,29.85,SW,218,4.0,9.2,13,0.00,,,-99.99,FreeWX 2.04,2013-04-29 00:08:00,
2013-04-28 18:18:00,53.2,3.7,29.85,SSW,204,4.0,10.5,13,0.00,,,-99.99,FreeWX 2.04,2013-04-29 00:18:00,
2013-04-28 18:28:00,53.2,6.8,29.85,South,182,5.0,11.0,15,0.00,,,-99.99,FreeWX 2.04,2013-04-29 00:28:00,
2013-04-28 18:38:00,53.2,6.8,29.85,SSW,198,5.0,12.5,15,0.00,,,-99.99,FreeWX 2.04,2013-04-29 00:38:00,
2013-04-28 18:48:00,52.9,6.4,29.85,SSW,201,3.0,9.6,15,0.00,,,-99.99,FreeWX 2.04,2013-04-29 00:48:00,
2013-04-28 18:58:00,53.8,7.2,29.85,SW,224,5.0,13.9,15,0.00,,,-99.99,FreeWX 2.04,2013-04-29 00:58:00,
2013-04-28 19:08:00,52.9,6.4,29.85,SW,218,7.0,16.8,15,0.00,,,-99.99,FreeWX 2.04,2013-04-29 01:08:00,
2013-04-28 19:18:00,52.9,6.4,29.85,SW,227,5.0,11.6,15,0.00,,,-99.99,FreeWX 2.04,2013-04-29 01:18:00,
2013-04-28 19:28:00,53.4,7.0,29.85,SSW,199,5.0,10.5,15,0.00,,,-99.99,FreeWX 2.04,2013-04-29 01:28:00,
2013-04-28 19:38:00,53.4,3.9,29.85,SSW,202,4.0,7.8,13,0.00,,,-99.99,FreeWX 2.04,2013-04-29 01:38:00,
2013-04-28 19:48:00,53.2,3.7,29.85,SSW,209,3.0,10.5,13,0.00,,,-99.99,FreeWX 2.04,2013-04-29 01:48:00,
2013-04-28 19:58:00,53.2,3.7,29.85,SW,224,4.0,11.2,13,0.00,,,-99.99,FreeWX 2.04,2013-04-29 01:58:00,
2013-04-28 20:08:00,52.9,3.4,29.85,SW,225,3.0,9.2,13,0.00,,,-99.99,FreeWX 2.04,2013-04-29 02:08:00,
2013-04-28 20:18:00,52.3,3.0,29.85,SW,216,3.0,7.8,13,0.00,,,-99.99,FreeWX 2.04,2013-04-29 02:18:00,
2013-04-28 20:28:00,51.6,2.5,29.85,SSW,211,3.0,10.1,13,0.00,,,-99.99,FreeWX 2.04,2013-04-29 02:28:00,
2013-04-28 20:38:00,50.5,3.2,29.85,SSW,208,2.0,5.8,14,0.00,,,-99.99,FreeWX 2.04,2013-04-29 02:38:00,
2013-04-28 20:48:00,50.7,3.2,29.85,SSW,206,3.0,8.7,14,0.00,,,-99.99,FreeWX 2.04,2013-04-29 02:48:00,
2013-04-28 20:58:00,50.5,3.2,29.85,SSW,213,4.0,9.6,14,0.00,,,-99.99,FreeWX 2.04,2013-04-29 02:58:00,
2013-04-28 21:08:00,50.4,3.0,29.85,SW,219,4.0,9.2,14,0.00,,,-99.99,FreeWX 2.04,2013-04-29 03:08:00,
2013-04-28 21:18:00,50.5,3.2,29.85,SW,215,4.0,11.6,14,0.00,,,-99.99,FreeWX 2.04,2013-04-29 03:18:00,
2013-04-28 21:28:00,50.5,3.2,29.85,SSW,207,4.0,8.7,14,0.00,,,-99.99,FreeWX 2.04,2013-04-29 03:28:00,
2013-04-28 21:38:00,50.2,2.8,29.85,SSW,200,3.0,7.4,14,0.00,,,-99.99,FreeWX 2.04,2013-04-29 03:38:00,
2013-04-28 21:48:00,49.8,2.7,29.85,SSW,202,2.0,7.8,14,0.00,,,-99.99,FreeWX 2.04,2013-04-29 03:48:00,
2013-04-28 21:58:00,49.5,2.3,29.85,SSW,200,4.0,9.2,14,0.00,,,-99.99,FreeWX 2.04,2013-04-29 03:58:00,
2013-04-28 22:08:00,49.1,1.9,29.85,SSW,199,4.0,8.7,14,0.00,,,-99.99,FreeWX 2.04,2013-04-29 04:08:00,
2013-04-28 22:18:00,48.6,1.6,29.85,SSW,199,3.0,10.5,14,0.00,,,-99.99,FreeWX 2.04,2013-04-29 04:18:00,
2013-04-28 22:28:00,48.2,1.2,29.85,SSW,197,4.0,8.3,14,0.00,,,-99.99,FreeWX 2.04,2013-04-29 04:28:00,
2013-04-28 22:38:00,47.7,0.9,29.85,SSW,197,4.0,11.0,14,0.00,,,-99.99,FreeWX 2.04,2013-04-29 04:38:00,
2013-04-28 22:48:00,47.3,0.5,29.85,South,184,3.0,10.5,14,0.00,,,-99.99,FreeWX 2.04,2013-04-29 04:48:00,
2013-04-28 22:58:00,46.2,-0.2,29.85,South,182,2.0,5.8,14,0.00,,,-99.99,FreeWX 2.04,2013-04-29 04:58:00,
2013-04-28 23:08:00,45.3,0.5,29.85,South,175,2.0,5.8,15,0.00,,,-99.99,FreeWX 2.04,2013-04-29 05:08:00,
2013-04-28 23:18:00,45.5,0.5,29.85,SSE,168,2.0,7.4,15,0.00,,,-99.99,FreeWX 2.04,2013-04-29 05:18:00,
2013-04-28 23:28:00,44.6,-0.2,29.85,SSE,160,2.0,6.3,15,0.00,,,-99.99,FreeWX 2.04,2013-04-29 05:28:00,
2013-04-28 23:38:00,44.2,-0.4,29.85,SSW,205,1.0,5.4,15,0.00,,,-99.99,FreeWX 2.04,2013-04-29 05:38:00,
2013-04-28 23:48:00,42.1,-2.2,29.85,SE,141,3.0,6.7,15,0.00,,,-99.99,FreeWX 2.04,2013-04-29 05:48:00,
2013-04-28 23:58:00,40.3,-2.4,29.85,SE,124,6.0,11.2,16,0.00,,,-99.99,FreeWX 2.04,2013-04-29 05:58:00,